Meteo Giornale » Osservazioni meteo Italia » Torino-Caselle

ore: 08:20 - Osservazioni Meteo Torino-Caselle
Lat. 45° 13' N Lon. 7° 39' E Alt. 301 metri s.l.m.

sereno Europe/Rome

27 °C

Sereno

Temp. 24 Ore

24 °C

34 °C

Nord

3.7 Km/h

Dew point 20 °C

Umidità 65 %

Visibilità  10 Km

Il sole sorge alle ore 05:42

Il sole tramonta alle ore 21:22

Data e Ora Cielo e Fenomeni T °C DP °C Um. % Pres. hPa Vis. km Vento km/h
Oggi h: 08:20 sereno Sereno 27 20 65 1022 10 N 3.7
Oggi h: 07:50 sereno Sereno 26 21 73 1022 10 N 3.7
Oggi h: 07:20 sereno Sereno 26 20 69 1022 10 N 1.8
Oggi h: 06:50 sereno Sereno 25 20 73 1022 10 N 3.7
Oggi h: 05:50 sereno Sereno 24 20 78 1023 10 SO 7.4
Oggi h: 05:20 sereno Sereno 24 20 78 1023 10 N 5.5
Oggi h: 04:50 sereno Sereno 24 20 78 1023 10 N 3.7
Oggi h: 04:20 sereno Sereno 24 21 83 1023 10 N 5.5
Oggi h: 03:50 sereno Sereno 24 21 83 1023 10 N 1.8
Oggi h: 03:20 sereno Sereno 25 21 78 1023 10 N 5.5
Oggi h: 02:50 sereno Sereno 26 21 73 1023 10 N 3.7
Oggi h: 02:20 sereno Sereno 27 21 69 1023 10 O/NO 11.1
Oggi h: 01:50 sereno Sereno 27 22 74 1023 10 NO 9.3
Oggi h: 01:20 sereno Sereno 27 22 74 1023 10 NO 9.3
Oggi h: 00:50 sereno Sereno 27 22 74 1024 10 NO 9.3
Oggi h: 00:20 sereno Sereno 28 22 69 1023 10 NO 9.3
Ieri h: 23:50 sereno Sereno 27 23 78 1023 10 N/NO 7.4
Ieri h: 23:20 sereno Sereno 28 23 74 1023 10 NO 7.4
Ieri h: 22:50 sereno Sereno 27 23 78 1023 10 N 9.3
Ieri h: 22:20 sereno Sereno 28 23 74 1023 10 N/NO 9.3
Ieri h: 21:50 sereno Sereno 29 23 70 1023 10 N/NO 9.3
Ieri h: 21:20 sereno Sereno 29 23 70 1023 10 NE 7.4
Ieri h: 20:50 sereno Sereno 29 23 70 1022 10 E/NE 7.4
Ieri h: 19:50 sereno Sereno 31 24 66 1022 10 E/NE 11.1
Ieri h: 19:20 sereno Sereno 32 24 62 1022 10 E 9.3
Ieri h: 17:50 sereno Sereno 34 22 49 1022 10 E 7.4
Ieri h: 17:20 sereno Sereno 33 21 49 1022 10 E 9.3
Ieri h: 16:50 sereno Sereno 34 21 46 1022 10 N 3.7
Ieri h: 16:20 sereno Sereno 34 22 49 1022 10 N 3.7
Ieri h: 15:50 sereno Sereno 33 22 52 1022 10 E/SE 7.4
Ieri h: 15:20 sereno Sereno 33 20 46 1023 10 N 5.5
Ieri h: 14:50 sereno Sereno 33 21 49 1023 10 N 5.5
Ieri h: 14:20 sereno Sereno 33 22 52 1023 10 N 5.5
Ieri h: 13:50 sereno Sereno 33 20 46 1023 10 N 3.7
Ieri h: 13:20 sereno Sereno 32 20 49 1024 10 N 3.7
Ieri h: 12:50 sereno Sereno 32 22 55 1024 10 E 7.4
Ieri h: 12:20 sereno Sereno 31 20 52 1024 10 E/SE 7.4
Ieri h: 11:50 sereno Sereno 31 20 52 1024 10 E/SE 7.4
Ieri h: 11:20 sereno Sereno 31 19 48 1024 10 N 5.5
Ieri h: 10:50 sereno Sereno 30 20 55 1024 10 N 5.5
Ieri h: 10:20 sereno Sereno 29 20 58 1025 10 N 5.5
Ieri h: 09:50 sereno Sereno 29 21 62 1025 10 N 3.7
Ieri h: 09:20 sereno Sereno 28 20 61 1025 10 N 3.7
Ieri h: 08:50 sereno Sereno 27 21 69 1025 10 N 3.7